Location: Church Tower
(37.7144°N, 119.6316°W)
Time: 19:19:15
(UTC+00:00)

Cosmos 1932 - Pass Details

Date: 15 November 2025
Orbit: 921 x 1008 km, 65.0° (Epoch: 08 December)

Event Time Altitude Azimuth Distance (km) Brightness Sun altitude
Exits shadow 12:21:08 52° 332° (NNW) 1,240 4.8 -27.3°
Maximum altitude 12:22:56 88° 61° (ENE) 1,010 4.5 -26.9°
Drops below altitude 10° 12:29:27 10° 151° (SSE) 2,754 7.2 -25.6°
Sets 12:32:00 0° 151° (SSE) 3,690 8.0 -25.1°
